This is the latest recevied weather packets stored in our database for station/object W4JCW. If no packets are shown the sender has not sent any weather packets the latest 10 day(s).
| Time | Temp. | Humidity | Pressure | Rain* | Wind** | Luminosity | Snow |
|---|---|---|---|---|---|---|---|
| 1777655220 | 16.11° C | 57% | 1013.2 hPa | 0 mm | - | 284 W/m² | - |
| 1777654916 | 15.56° C | 56% | 1013.2 hPa | 0 mm | - | 257 W/m² | - |
| 1777654614 | 15.56° C | 56% | 1013.1 hPa | 0 mm | - | 247 W/m² | - |
| 1777654311 | 15.56° C | 57% | 1013.2 hPa | 0 mm | - | 186 W/m² | - |
| 1777654009 | 15° C | 58% | 1013.1 hPa | 0 mm | - | 173 W/m² | - |
| 1777653706 | 15° C | 57% | 1013.6 hPa | 0 mm | - | 162 W/m² | - |
| 1777653402 | 15° C | 59% | 1013.8 hPa | 0 mm | - | 67 W/m² | - |
| 1777653099 | 15° C | 57% | 1013.5 hPa | 0 mm | - | 85 W/m² | - |
| 1777652795 | 15.56° C | 55% | 1013.5 hPa | 0 mm | - | 78 W/m² | - |
| 1777652492 | 15.56° C | 55% | 1013.5 hPa | 0 mm | - | 109 W/m² | - |
| 1777652189 | 15° C | 54% | 1013.5 hPa | 0 mm | - | 152 W/m² | - |
| 1777651886 | 15.56° C | 54% | 1013.6 hPa | 0 mm | - | 97 W/m² | - |
| 1777651583 | 15.56° C | 54% | 1013.5 hPa | 0 mm | - | 81 W/m² | - |
| 1777651280 | 15.56° C | 54% | 1013.3 hPa | 0 mm | - | 124 W/m² | - |
| 1777650976 | 15.56° C | 56% | 1013.3 hPa | 0 mm | - | 156 W/m² | - |
| 1777650674 | 15.56° C | 55% | 1013.2 hPa | 0 mm | - | 132 W/m² | - |
| 1777650371 | 15.56° C | 55% | 1013.4 hPa | 0 mm | - | 151 W/m² | - |
| 1777650068 | 15.56° C | 56% | 1013.6 hPa | 0 mm | - | 177 W/m² | - |
| 1777649765 | 15.56° C | 56% | 1013.7 hPa | 0 mm | - | 169 W/m² | - |
| 1777649462 | 15.56° C | 56% | 1013.6 hPa | 0 mm | - | 130 W/m² | - |
| 1777649158 | 15.56° C | 56% | 1013.2 hPa | 0 mm | - | 148 W/m² | - |
| 1777648856 | 15.56° C | 57% | 1013.5 hPa | 0 mm | - | 113 W/m² | - |
| 1777648553 | 15.56° C | 56% | 1013.5 hPa | 0 mm | - | 109 W/m² | - |
| 1777648250 | 15.56° C | 56% | 1013.3 hPa | 0 mm | - | 114 W/m² | - |
| 1777647950 | 15.56° C | 55% | 1013.8 hPa | 0 mm | - | 88 W/m² | - |
* Rain latest hour (hover to see other rain measurements)
** Current wind speed in m/s (hover to see current wind gust speed)